FW7617 Weather Reports


time (UTC)temp
C
wind
direction
speed
KPH
gust
KPH
rain 1hr
cm
rain 24hr
cm
rain mn
cm
humidity
%
barometer
mb
20260506182517 17 244 4.8 8.0 0.00 0.46 0.46 89 1007.6
20260506181517 17 240 4.8 9.7 0.03 0.46 0.46 89 1007.6
20260506180517 17 256 3.2 6.4 0.05 0.46 0.46 89 1007.7
20260506175557 17 246 1.6 3.2 0.08 0.46 0.46 88 1008.0
20260506174517 17 245 3.2 6.4 0.10 0.46 0.46 88 1008.1
20260506173517 17 247 3.2 8.0 0.13 0.46 0.46 88 1008.1
20260506172518 17 237 3.2 6.4 0.20 0.46 0.46 88 1008.1
20260506171518 17 207 3.2 8.0 0.23 0.46 0.46 88 1007.9
20260506170515 17 217 4.8 12.9 0.28 0.41 0.41 87 1008.0
20260506165515 17 191 4.8 11.3 0.30 0.38 0.38 87 1008.1
20260506164515 17 214 3.2 8.0 0.30 0.36 0.36 88 1008.5
20260506163515 17 205 1.6 4.8 0.30 0.33 0.33 88 1008.8
20260506162516 17 253 1.6 4.8 0.25 0.28 0.28 87 1009.2
20260506161516 17 242 3.2 6.4 0.20 0.20 0.20 84 1009.2
20260506160516 18 254 3.2 4.8 0.15 0.15 0.15 82 1009.4
20260506155516 18 258 3.2 6.4 0.08 0.08 0.08 78 1009.5
20260506154536 19 257 4.8 9.7 0.05 0.05 0.05 75 1009.4
20260506153517 19 257 6.4 14.5 0.03 0.03 0.03 72 1009.3
20260506152536 20 254 6.4 12.9 0.03 0.03 0.03 70 1009.3
20260506151517 20 257 8.0 12.9 0.00 0.00 0.00 67 1009.1
20260506150517 20 243 6.4 12.9 0.00 0.00 0.00 66 1009.2
20260506145517 20 258 8.0 14.5 0.00 0.00 0.00 65 1009.3
20260506144517 21 235 8.0 17.7 0.00 0.00 0.00 64 1009.4
20260506143518 21 241 8.0 14.5 0.00 0.00 0.00 64 1009.3
20260506142538 21 263 9.7 20.9 0.00 0.00 0.00 64 1009.4
20260506141518 20 255 6.4 16.1 0.00 0.00 0.00 65 1009.2
20260506140535 20 269 4.8 9.7 0.00 0.00 0.00 66 1009.3
20260506135515 20 235 8.0 16.1 0.00 0.00 0.00 66 1009.3
20260506134515 20 229 8.0 16.1 0.00 0.00 0.00 65 1009.3
20260506133516 20 256 4.8 11.3 0.00 0.00 0.00 66 1009.5
20260506132555 20 248 8.0 16.1 0.00 0.00 0.00 66 1009.6
20260506131516 20 242 6.4 12.9 0.00 0.00 0.00 66 1009.5
20260506130516 20 243 8.0 14.5 0.00 0.00 0.00 67 1009.7
20260506125516 20 253 8.0 14.5 0.00 0.00 0.00 67 1009.4
20260506124516 20 261 6.4 14.5 0.00 0.00 0.00 67 1009.2
20260506123537 20 225 6.4 14.5 0.00 0.00 0.00 67 1009.1
20260506122537 19 232 6.4 12.9 0.00 0.00 0.00 68 1009.3
20260506121517 19 239 6.4 16.1 0.00 0.00 0.00 70 1009.5
20260506120517 18 237 4.8 12.9 0.00 0.00 0.00 70 1009.4
20260506115517 18 262 6.4 12.9 0.00 0.00 0.00 71 1009.5
20260506114517 18 232 6.4 14.5 0.00 0.00 0.00 71 1009.8
20260506113518 18 232 8.0 17.7 0.00 0.00 0.00 71 1009.7
20260506112518 18 225 4.8 11.3 0.00 0.00 0.00 72 1009.6
20260506111518 18 206 6.4 12.9 0.00 0.00 0.00 73 1009.6
20260506110515 18 213 4.8 11.3 0.00 0.00 0.00 74 1009.6
20260506105521 18 220 4.8 9.7 0.00 0.00 0.00 75 1009.4
20260506104515 17 195 4.8 11.3 0.00 0.00 0.00 75 1009.3
20260506103515 17 207 4.8 6.4 0.00 0.00 0.00 76 1009.3
20260506102515 17 207 4.8 14.5 0.00 0.00 0.00 76 1009.4
20260506101516 17 196 4.8 8.0 0.00 0.00 0.00 75 1009.4
20260506100536 18 206 4.8 9.7 0.00 0.00 0.00 75 1009.3
20260506095516 18 211 4.8 11.3 0.00 0.00 0.00 75 1009.1
20260506094536 18 213 6.4 16.1 0.00 0.00 0.00 75 1009.1
20260506093516 18 206 4.8 11.3 0.00 0.00 0.00 75 1009.2
20260506092516 17 216 4.8 6.4 0.00 0.00 0.00 76 1009.1
20260506091516 17 216 4.8 9.7 0.00 0.00 0.00 76 1009.2
20260506090537 17 214 4.8 11.3 0.00 0.00 0.00 77 1009.3
20260506085516 17 213 1.6 3.2 0.00 0.00 0.00 76 1009.4
20260506084532 18 189 3.2 9.7 0.00 0.00 0.00 75 1009.4
20260506083517 18 106 1.6 4.8 0.00 0.00 0.00 76 1009.5
20260506082516 18 155 1.6 4.8 0.00 0.00 0.00 74 1009.5
20260506081516 18 211 1.6 4.8 0.00 0.00 0.00 74 1009.6
20260506080516 18 235 3.2 6.4 0.00 0.00 0.00 74 1009.5
20260506073515 18 204 3.2 6.4 0.00 0.00 0.00 73 1009.6
20260506072516 18 182 3.2 9.7 0.00 0.00 0.00 72 1009.6
20260506071516 18 232 1.6 8.0 0.00 0.00 0.00 72 1009.6
20260506070536 18 308 1.6 4.8 0.00 0.00 0.00 71 1009.7
20260506062517 19 211 1.6 6.4 0.00 0.00 0.00 68 1010.0
20260506061517 19 225 3.2 8.0 0.00 0.00 0.00 68 1010.0
20260506060517 19 239 1.6 6.4 0.00 0.00 0.00 67 1010.0
20260506050515 20 218 3.2 6.4 0.00 0.00 0.00 63 1010.4
20260506044516 20 225 3.2 12.9 0.00 0.00 0.00 62 1010.4
20260506043515 20 239 1.6 6.4 0.00 0.00 0.00 61 1010.4
20260506042516 20 215 4.8 11.3 0.00 0.00 0.00 60 1010.4
20260506041536 20 234 3.2 11.3 0.00 0.00 0.00 59 1010.5
20260506040516 20 243 3.2 6.4 0.00 0.00 0.00 59 1010.4
20260506035516 20 225 3.2 6.4 0.00 0.00 0.00 58 1010.4
20260506034516 21 227 4.8 12.9 0.00 0.00 0.00 57 1010.3
20260506033517 21 237 3.2 9.7 0.00 0.00 0.00 57 1010.3
20260506032517 21 215 4.8 9.7 0.00 0.00 0.00 56 1010.3
20260506031517 21 213 3.2 8.0 0.00 0.00 0.00 55 1010.3
20260506030517 21 233 3.2 11.3 0.00 0.00 0.00 55 1010.3
20260506025518 21 222 4.8 11.3 0.00 0.00 0.00 54 1010.2
20260506024517 21 218 4.8 11.3 0.00 0.00 0.00 54 1010.1
20260506023517 21 218 4.8 12.9 0.00 0.00 0.00 53 1010.2
20260506022518 22 238 4.8 9.7 0.00 0.00 0.00 52 1010.2
20260506021518 22 229 4.8 12.9 0.00 0.00 0.00 52 1010.1
20260506020515 22 239 3.2 11.3 0.00 0.00 0.00 51 1010.1
20260506015515 22 219 4.8 11.3 0.00 0.00 0.00 50 1010.0
20260506014515 22 215 4.8 12.9 0.00 0.00 0.00 49 1009.9
20260506013515 23 210 8.0 16.1 0.00 0.00 0.00 47 1009.9
20260506012516 23 223 6.4 12.9 0.00 0.00 0.00 45 1009.8
20260506011516 23 199 6.4 17.7 0.00 0.00 0.00 42 1009.6
20260506010516 23 222 6.4 11.3 0.00 0.00 0.00 41 1009.4
20260506005516 24 191 4.8 11.3 0.00 0.00 0.00 39 1009.3
20260506004536 24 219 6.4 12.9 0.00 0.00 0.00 37 1009.1
20260506003517 25 218 9.7 16.1 0.00 0.00 0.00 37 1009.0
20260506002516 25 227 4.8 9.7 0.00 0.00 0.00 37 1008.9
20260506001517 25 249 3.2 11.3 0.00 0.00 0.00 37 1008.9
20260506000517 25 227 6.4 12.9 0.00 0.00 0.00 36 1008.8
20260505235537 25 223 8.0 16.1 0.00 0.00 0.00 35 1008.8
20260505234517 26 233 9.7 17.7 0.00 0.00 0.00 34 1008.7
20260505233558 26 219 6.4 14.5 0.00 0.00 0.00 32 1008.6
20260505232518 26 249 6.4 16.1 0.00 0.00 0.00 31 1008.4
20260505231518 26 254 9.7 22.5 0.00 0.00 0.00 30 1008.3
20260505230518 26 232 8.0 19.3 0.00 0.00 0.00 30 1008.2
20260505225515 26 240 8.0 14.5 0.00 0.00 0.00 29 1008.0
20260505224515 26 233 6.4 12.9 0.00 0.00 0.00 28 1007.9
20260505223515 27 248 9.7 16.1 0.00 0.00 0.00 28 1007.9
20260505222516 27 255 9.7 16.1 0.00 0.00 0.00 28 1008.0
20260505221516 27 254 8.0 16.1 0.00 0.00 0.00 27 1008.0
20260505220516 27 249 8.0 14.5 0.00 0.00 0.00 26 1007.9
20260505215516 27 254 9.7 24.1 0.00 0.00 0.00 25 1007.8
20260505214516 27 252 11.3 19.3 0.00 0.00 0.00 25 1007.6
20260505213516 28 241 12.9 20.9 0.00 0.00 0.00 24 1007.5
20260505212536 28 252 12.9 22.5 0.00 0.00 0.00 25 1007.5
20260505211517 28 260 11.3 20.9 0.00 0.00 0.00 25 1007.4
20260505210517 28 258 11.3 20.9 0.00 0.00 0.00 25 1007.4
20260505205517 28 246 9.7 19.3 0.00 0.00 0.00 26 1007.5
20260505204517 28 246 9.7 22.5 0.00 0.00 0.00 26 1007.4
20260505203517 28 237 9.7 20.9 0.00 0.00 0.00 26 1007.5
20260505202517 28 254 9.7 17.7 0.00 0.00 0.00 28 1007.4
20260505201518 28 253 11.3 17.7 0.00 0.00 0.00 28 1007.5
20260505200538 28 252 11.3 22.5 0.00 0.00 0.00 28 1007.6
20260505195515 28 257 12.9 20.9 0.00 0.00 0.00 28 1007.7
20260505194515 28 248 12.9 27.4 0.00 0.00 0.00 28 1007.8
20260505193516 28 229 11.3 22.5 0.00 0.00 0.00 28 1007.9
20260505192516 28 254 9.7 20.9 0.00 0.00 0.00 29 1007.9
20260505191516 28 240 8.0 19.3 0.00 0.00 0.00 31 1008.2
20260505190516 28 231 11.3 24.1 0.00 0.00 0.00 30 1008.3
20260505185516 28 224 12.9 32.2 0.00 0.00 0.00 30 1008.3
20260505184536 28 254 12.9 24.1 0.00 0.00 0.00 31 1008.5
20260505183516 28 225 9.7 19.3 0.00 0.00 0.00 32 1008.8